EW4725 Weather Reports


time (UTC)temp
C
wind
direction
speed
KPH
gust
KPH
rain 1hr
cm
rain 24hr
cm
rain mn
cm
humidity
%
barometer
mb
20260906064417 22 0.0 1.6 0.00 0.00 0.00 82 1011.9
20260906063917 22 0.0 0.0 0.00 0.00 0.00 81 1012.0
20260906063415 22 0.0 0.0 0.00 0.00 0.00 81 1012.0
20260906062917 22 0.0 0.0 0.00 0.00 0.00 82 1012.1
20260906062437 22 0.0 0.0 0.00 0.00 0.00 81 1012.1
20260906061917 22 0.0 0.0 0.00 0.00 0.00 81 1012.1
20260906061417 22 0.0 1.6 0.00 0.00 0.00 81 1012.1
20260906060937 22 260 3.2 4.8 0.00 0.00 0.00 81 1012.1
20260906060417 22 0.0 1.6 0.00 0.00 0.00 80 1012.1
20260906055917 22 260 1.6 4.8 0.00 0.00 0.00 79 1012.2
20260906055437 22 0.0 1.6 0.00 0.00 0.00 79 1012.1
20260906054917 22 283 1.6 3.2 0.00 0.00 0.00 79 1012.2
20260906054417 22 0.0 0.0 0.00 0.00 0.00 77 1012.3
20260906053917 22 0.0 0.0 0.00 0.00 0.00 77 1012.3
20260906053417 22 238 1.6 4.8 0.00 0.00 0.00 76 1012.3
20260906052917 22 0.0 0.0 0.00 0.00 0.00 75 1012.3
20260906052437 22 283 1.6 3.2 0.00 0.00 0.00 74 1012.4
20260906051917 22 260 3.2 6.4 0.00 0.00 0.00 73 1012.5
20260906051417 22 260 1.6 1.6 0.00 0.00 0.00 73 1012.5
20260906050917 22 260 3.2 4.8 0.00 0.00 0.00 72 1012.5
20260906050417 22 283 1.6 3.2 0.00 0.00 0.00 72 1012.5
20260906045937 22 260 3.2 3.2 0.00 0.00 0.00 73 1012.5
20260906045437 22 260 3.2 4.8 0.00 0.00 0.00 72 1012.5
20260906044917 22 260 4.8 6.4 0.00 0.00 0.00 72 1012.5
20260906044417 22 283 4.8 6.4 0.00 0.00 0.00 71 1012.5
20260906043937 22 283 1.6 1.6 0.00 0.00 0.00 70 1012.5
20260906043417 22 260 3.2 4.8 0.00 0.00 0.00 70 1012.4
20260906042917 22 260 3.2 3.2 0.00 0.00 0.00 69 1012.4
20260906042417 23 283 4.8 8.0 0.00 0.00 0.00 69 1012.4
20260906041917 23 283 4.8 8.0 0.00 0.00 0.00 69 1012.4
20260906041417 23 260 4.8 8.0 0.00 0.00 0.00 68 1012.3
20260906040937 23 283 4.8 6.4 0.00 0.00 0.00 68 1012.3
20260906040417 23 283 6.4 11.3 0.00 0.00 0.00 68 1012.2
20260906035937 23 283 4.8 8.0 0.00 0.00 0.00 69 1012.2
20260906035417 23 305 4.8 8.0 0.00 0.00 0.00 68 1012.2
20260906034917 23 305 4.8 6.4 0.00 0.00 0.00 67 1012.2
20260906034417 23 283 3.2 6.4 0.00 0.00 0.00 67 1012.1
20260906033917 23 305 4.8 6.4 0.00 0.00 0.00 67 1012.1
20260906033457 23 283 3.2 6.4 0.00 0.00 0.00 66 1012.0
20260906032917 23 260 4.8 8.0 0.00 0.00 0.00 66 1011.9
20260906032417 23 283 1.6 3.2 0.00 0.00 0.00 67 1011.8
20260906031917 23 283 4.8 6.4 0.00 0.00 0.00 68 1011.8
20260906031417 23 283 4.8 6.4 0.00 0.00 0.00 69 1011.8
20260906030917 23 283 4.8 6.4 0.00 0.00 0.00 72 1011.7
20260906030417 23 283 4.8 9.7 0.00 0.00 0.00 72 1011.7
20260906025937 23 283 6.4 9.7 0.00 0.00 0.00 74 1011.7
20260906025416 23 283 3.2 6.4 0.00 0.00 0.00 74 1011.6
20260906024917 23 283 3.2 4.8 0.00 0.00 0.00 74 1011.6
20260906024417 23 283 3.2 4.8 0.00 0.00 0.00 73 1011.5
20260906023916 23 283 4.8 8.0 0.00 0.00 0.00 73 1011.6
20260906023416 23 305 3.2 6.4 0.00 0.00 0.00 72 1011.6
20260906022917 23 283 3.2 6.4 0.00 0.00 0.00 72 1011.7
20260906022417 24 260 8.0 14.5 0.00 0.00 0.00 72 1011.6
20260906021916 24 283 6.4 11.3 0.00 0.00 0.00 72 1011.6
20260906021416 24 283 4.8 8.0 0.00 0.00 0.00 71 1011.6
20260906020916 24 260 8.0 12.9 0.00 0.00 0.00 70 1011.7
20260906020417 25 283 3.2 6.4 0.00 0.00 0.00 70 1011.7
20260906015917 25 283 6.4 11.3 0.00 0.00 0.00 69 1011.7
20260906015416 25 283 8.0 14.5 0.00 0.00 0.00 68 1011.7
20260906014916 25 283 4.8 8.0 0.00 0.00 0.00 67 1011.6
20260906014417 25 260 8.0 11.3 0.00 0.00 0.00 66 1011.7
20260906013936 25 283 3.2 6.4 0.00 0.00 0.00 65 1011.6
20260906013416 25 283 6.4 9.7 0.00 0.00 0.00 65 1011.6
20260906012916 25 283 8.0 12.9 0.00 0.00 0.00 65 1011.6
20260906012416 26 260 6.4 12.9 0.00 0.00 0.00 65 1011.6
20260906011916 26 305 9.7 16.1 0.00 0.00 0.00 63 1011.5
20260906011416 26 260 8.0 12.9 0.00 0.00 0.00 63 1011.4
20260906010917 26 260 8.0 12.9 0.00 0.00 0.00 63 1011.4
20260906010416 26 283 8.0 11.3 0.00 0.00 0.00 62 1011.4
20260906005917 26 283 12.9 16.1 0.00 0.00 0.00 60 1011.4
20260906005416 26 260 9.7 12.9 0.00 0.00 0.00 60 1011.5
20260906004916 26 283 9.7 12.9 0.00 0.00 0.00 58 1011.5
20260906004417 27 283 8.0 11.3 0.00 0.00 0.00 57 1011.5
20260906003916 27 283 8.0 12.9 0.00 0.00 0.00 55 1011.4
20260906003416 27 283 9.7 14.5 0.00 0.00 0.00 56 1011.4
20260906002917 27 283 8.0 12.9 0.00 0.00 0.00 55 1011.4
20260906002417 27 305 6.4 11.3 0.00 0.00 0.00 55 1011.3
20260906001917 28 283 9.7 14.5 0.00 0.00 0.00 53 1011.4
20260906001436 28 260 4.8 9.7 0.00 0.00 0.00 53 1011.3
20260906000917 28 283 9.7 11.3 0.00 0.00 0.00 52 1011.3
20260906000418 29 283 4.8 8.0 0.00 0.00 0.00 50 1011.3
20260905235916 29 283 6.4 9.7 0.00 0.00 0.00 49 1011.2
20260905235416 29 283 9.7 14.5 0.00 0.00 0.00 48 1011.2
20260905234917 30 283 11.3 19.3 0.00 0.00 0.00 47 1011.3
20260905234416 30 260 11.3 16.1 0.00 0.00 0.00 47 1011.3
20260905233936 31 283 11.3 17.7 0.00 0.00 0.00 45 1011.2
20260905233416 31 283 9.7 14.5 0.00 0.00 0.00 42 1011.2
20260905232916 31 305 3.2 9.7 0.00 0.00 0.00 41 1011.2
20260905232416 31 238 8.0 16.1 0.00 0.00 0.00 42 1011.2
20260905231916 31 0.0 0.0 0.00 0.00 0.00 40 1011.2
20260905231416 32 0.0 0.0 0.00 0.00 0.00 26 1011.2
20260905230916 32 0.0 0.0 0.00 0.00 0.00 26 1011.2
20260905230416 32 0.0 0.0 0.00 0.00 0.00 23 1011.2
20260905225916 32 0.0 1.6 0.00 0.00 0.00 21 1011.3
20260905225416 32 0.0 3.2 0.00 0.00 0.00 21 1011.4
20260905224916 32 0.0 0.0 0.00 0.00 0.00 22 1011.4
20260905224417 32 0.0 0.0 0.00 0.00 0.00 21 1011.5
20260905223916 33 215 1.6 6.4 0.00 0.00 0.00 22 1011.5
20260905223416 33 148 3.2 6.4 0.00 0.00 0.00 21 1011.6
20260905222916 32 283 6.4 8.0 0.00 0.00 0.00 21 1011.6
20260905222436 32 170 3.2 4.8 0.00 0.00 0.00 21 1011.7
20260905221917 32 148 4.8 6.4 0.00 0.00 0.00 21 1011.7
20260905221416 32 170 3.2 8.0 0.00 0.00 0.00 22 1011.7
20260905220916 32 148 4.8 9.7 0.00 0.00 0.00 22 1011.8
20260905220416 32 0.0 1.6 0.00 0.00 0.00 21 1011.9
20260905215957 32 148 8.0 9.7 0.00 0.00 0.00 22 1011.9
20260905215416 32 148 1.6 4.8 0.00 0.00 0.00 23 1012.0
20260905214916 32 215 1.6 3.2 0.00 0.00 0.00 24 1012.1
20260905214416 32 215 4.8 8.0 0.00 0.00 0.00 24 1012.2
20260905213916 32 125 4.8 6.4 0.00 0.00 0.00 25 1012.1
20260905213416 32 283 4.8 8.0 0.00 0.00 0.00 26 1012.2
20260905212916 32 125 4.8 11.3 0.00 0.00 0.00 26 1012.2
20260905212416 32 148 3.2 6.4 0.00 0.00 0.00 25 1012.2
20260905211916 32 170 1.6 6.4 0.00 0.00 0.00 27 1012.3
20260905211416 32 148 1.6 6.4 0.00 0.00 0.00 26 1012.3
20260905210916 31 148 3.2 6.4 0.00 0.00 0.00 27 1012.4
20260905210456 31 215 4.8 9.7 0.00 0.00 0.00 27 1012.4
20260905205916 32 35 1.6 3.2 0.00 0.00 0.00 27 1012.4
20260905205416 32 238 4.8 9.7 0.00 0.00 0.00 27 1012.5
20260905204916 32 305 3.2 4.8 0.00 0.00 0.00 27 1012.5
20260905204416 32 148 6.4 8.0 0.00 0.00 0.00 29 1012.5
20260905203916 32 283 3.2 9.7 0.00 0.00 0.00 28 1012.6
20260905203416 32 238 3.2 9.7 0.00 0.00 0.00 30 1012.7
20260905202916 31 148 3.2 6.4 0.00 0.00 0.00 30 1012.7
20260905202416 31 148 3.2 6.4 0.00 0.00 0.00 31 1012.7
20260905201916 31 0.0 3.2 0.00 0.00 0.00 33 1012.7
20260905201416 31 193 1.6 3.2 0.00 0.00 0.00 34 1012.8
20260905200916 31 238 1.6 3.2 0.00 0.00 0.00 34 1012.9
20260905200416 31 148 1.6 3.2 0.00 0.00 0.00 36 1012.9
20260905195936 31 215 1.6 4.8 0.00 0.00 0.00 37 1012.9
20260905195416 30 148 1.6 6.4 0.00 0.00 0.00 39 1013.0
20260905194916 30 170 3.2 6.4 0.00 0.00 0.00 39 1013.1
20260905194416 30 0.0 3.2 0.00 0.00 0.00 40 1013.3
20260905193916 31 148 4.8 9.7 0.00 0.00 0.00 39 1013.3
20260905193416 30 283 1.6 4.8 0.00 0.00 0.00 37 1013.2
20260905192916 30 283 6.4 14.5 0.00 0.00 0.00 36 1013.2
20260905192416 30 283 3.2 8.0 0.00 0.00 0.00 37 1013.4
20260905191936 30 260 3.2 6.4 0.00 0.00 0.00 36 1013.5
20260905191436 30 0.0 3.2 0.00 0.00 0.00 37 1013.5
20260905190916 30 0.0 1.6 0.00 0.00 0.00 37 1013.6
20260905190416 30 0.0 0.0 0.00 0.00 0.00 37 1013.6
20260905185916 30 125 1.6 4.8 0.00 0.00 0.00 35 1013.7
20260905185416 29 125 3.2 6.4 0.00 0.00 0.00 34 1013.7
20260905184916 29 0.0 3.2 0.00 0.00 0.00 34 1013.7
20260905184436 29 148 6.4 8.0 0.00 0.00 0.00 33 1013.9
20260905183916 29 103 3.2 4.8 0.00 0.00 0.00 31 1013.9
20260905183416 28 0.0 0.0 0.00 0.00 0.00 38 1014.0
20260905182936 28 0.0 3.2 0.00 0.00 0.00 38 1014.0
20260905182416 28 58 4.8 6.4 0.00 0.00 0.00 40 1014.1
20260905181916 28 125 1.6 3.2 0.00 0.00 0.00 42 1014.1
20260905181416 28 148 1.6 4.8 0.00 0.00 0.00 44 1014.1
20260905180936 27 0.0 0.0 0.00 0.00 0.00 47 1014.1
20260905180416 27 125 1.6 6.4 0.00 0.00 0.00 48 1014.0
20260905175936 27 58 4.8 6.4 0.00 0.00 0.00 48 1014.1
20260905175416 26 0.0 3.2 0.00 0.00 0.00 51 1014.1
20260905174916 26 125 6.4 9.7 0.00 0.00 0.00 52 1014.2
20260905174415 26 125 3.2 6.4 0.00 0.00 0.00 56 1014.1
20260905173936 26 103 3.2 3.2 0.00 0.00 0.00 57 1014.1
20260905173416 26 0.0 0.0 0.00 0.00 0.00 60 1014.1
20260905172916 26 148 4.8 8.0 0.00 0.00 0.00 61 1014.0
20260905171916 25 283 3.2 4.8 0.00 0.00 0.00 62 1014.0
20260905171416 25 0.0 1.6 0.00 0.00 0.00 63 1014.0
20260905170916 25 125 4.8 6.4 0.00 0.00 0.00 63 1014.1
20260905170416 25 0.0 1.6 0.00 0.00 0.00 65 1014.0
20260905165916 25 125 1.6 3.2 0.00 0.00 0.00 66 1014.1
20260905165416 24 0.0 1.6 0.00 0.00 0.00 68 1014.1
20260905164916 24 0.0 1.6 0.00 0.00 0.00 69 1014.1
20260905164416 24 125 3.2 8.0 0.00 0.00 0.00 71 1014.1
20260905163936 23 125 1.6 3.2 0.00 0.00 0.00 71 1014.1
20260905163415 23 0.0 0.0 0.00 0.00 0.00 73 1014.0
20260905162915 23 283 1.6 3.2 0.00 0.00 0.00 71 1014.0
20260905162415 23 0.0 0.0 0.00 0.00 0.00 75 1014.0
20260905161916 22 0.0 0.0 0.00 0.00 0.00 76 1013.9
20260905161416 22 0.0 1.6 0.00 0.00 0.00 75 1013.9
20260905160916 22 238 3.2 3.2 0.00 0.00 0.00 76 1013.9
20260905160415 22 0.0 1.6 0.00 0.00 0.00 78 1013.9
20260905155916 22 0.0 0.0 0.00 0.00 0.00 80 1014.0
20260905155416 22 305 3.2 4.8 0.00 0.00 0.00 79 1013.9
20260905154916 22 0.0 3.2 0.00 0.00 0.00 82 1013.8
20260905154416 21 0.0 0.0 0.00 0.00 0.00 82 1013.8
20260905153935 21 305 3.2 4.8 0.00 0.00 0.00 82 1013.8
20260905153416 21 0.0 0.0 0.00 0.00 0.00 83 1013.8
20260905152915 21 328 1.6 1.6 0.00 0.00 0.00 81 1013.8
20260905152415 21 13 1.6 3.2 0.00 0.00 0.00 82 1013.8
20260905151916 21 125 1.6 3.2 0.00 0.00 0.00 84 1013.7
20260905151415 21 305 3.2 4.8 0.00 0.00 0.00 83 1013.6
20260905150935 20 0.0 0.0 0.00 0.00 0.00 86 1013.6
20260905150436 20 0.0 0.0 0.00 0.00 0.00 86 1013.6
20260905145916 20 0.0 0.0 0.00 0.00 0.00 87 1013.6
20260905145415 19 350 1.6 3.2 0.00 0.00 0.00 87 1013.6
20260905144916 19 0.0 1.6 0.00 0.00 0.00 88 1013.5
20260905144415 18 0.0 0.0 0.00 0.00 0.00 89 1013.5
20260905143915 18 350 1.6 3.2 0.00 0.00 0.00 89 1013.4
20260905143415 18 0.0 0.0 0.00 0.00 0.00 90 1013.4
20260905142915 17 0.0 0.0 0.00 0.00 0.00 90 1013.4
20260905142435 17 0.0 0.0 0.00 0.00 0.00 90 1013.4
20260905141916 17 0.0 1.6 0.00 0.00 0.00 90 1013.4
20260905141415 17 0.0 0.0 0.00 0.00 0.00 90 1013.2
20260905140915 17 0.0 0.0 0.00 0.00 0.00 91 1013.2
20260905140416 17 0.0 0.0 0.00 0.00 0.00 91 1013.1
20260905135915 17 0.0 1.6 0.00 0.00 0.00 91 1013.1
20260905135415 17 0.0 0.0 0.00 0.00 0.00 91 1013.0
20260905134936 17 0.0 0.0 0.00 0.00 0.00 91 1013.0
20260905134455 17 0.0 1.6 0.00 0.00 0.00 92 1012.9
20260905133916 17 0.0 1.6 0.00 0.00 0.00 92 1012.9
20260905133415 16 0.0 0.0 0.00 0.00 0.00 91 1012.9
20260905132916 16 0.0 0.0 0.00 0.00 0.00 90 1012.8
20260905132415 17 0.0 0.0 0.00 0.00 0.00 90 1012.8
20260905131956 17 0.0 0.0 0.00 0.00 0.00 90 1012.8
20260905131415 17 0.0 0.0 0.00 0.00 0.00 91 1012.7
20260905130915 17 0.0 0.0 0.00 0.00 0.00 90 1012.6
20260905130415 17 0.0 0.0 0.00 0.00 0.00 90 1012.6
20260905125936 17 0.0 1.6 0.00 0.00 0.00 90 1012.6
20260905125415 17 0.0 0.0 0.00 0.00 0.00 90 1012.6
20260905124915 17 0.0 0.0 0.00 0.00 0.00 91 1012.6
20260905124415 17 0.0 0.0 0.00 0.00 0.00 91 1012.6
20260905123915 17 0.0 0.0 0.00 0.00 0.00 91 1012.6
20260905123415 17 103 1.6 3.2 0.00 0.00 0.00 91 1012.6
20260905122915 17 0.0 0.0 0.00 0.00 0.00 91 1012.5
20260905122415 17 0.0 0.0 0.00 0.00 0.00 91 1012.6
20260905121915 17 0.0 0.0 0.00 0.00 0.00 90 1012.7
20260905121415 17 0.0 0.0 0.00 0.00 0.00 90 1012.7
20260905120915 17 0.0 0.0 0.00 0.00 0.00 90 1012.7
20260905120415 18 0.0 0.0 0.00 0.00 0.00 90 1012.6
20260905115915 18 0.0 0.0 0.00 0.00 0.00 90 1012.7
20260905115415 18 0.0 0.0 0.00 0.00 0.00 91 1012.6
20260905114915 18 0.0 0.0 0.00 0.00 0.00 91 1012.6
20260905114417 18 0.0 0.0 0.00 0.00 0.00 90 1012.6
20260905113917 18 0.0 0.0 0.00 0.00 0.00 91 1012.6
20260905113435 18 0.0 0.0 0.00 0.00 0.00 91 1012.7
20260905112917 18 0.0 0.0 0.00 0.00 0.00 91 1012.7
20260905112417 18 0.0 1.6 0.00 0.00 0.00 91 1012.8
20260905111917 18 0.0 0.0 0.00 0.00 0.00 91 1012.8
20260905111417 18 0.0 0.0 0.00 0.00 0.00 90 1012.8
20260905110917 18 0.0 0.0 0.00 0.00 0.00 90 1012.8
20260905110417 18 0.0 0.0 0.00 0.00 0.00 91 1012.8
20260905105917 18 0.0 1.6 0.00 0.00 0.00 91 1012.9
20260905105417 18 103 1.6 3.2 0.00 0.00 0.00 91 1012.8
20260905104917 18 0.0 1.6 0.00 0.00 0.00 90 1012.8
20260905104417 18 0.0 0.0 0.00 0.00 0.00 90 1012.8
20260905103917 18 0.0 1.6 0.00 0.00 0.00 90 1012.7
20260905103417 18 103 1.6 3.2 0.00 0.00 0.00 90 1012.8
20260905102917 18 0.0 1.6 0.00 0.00 0.00 90 1012.8
20260905102417 18 125 3.2 3.2 0.00 0.00 0.00 90 1012.9
20260905101917 18 0.0 0.0 0.00 0.00 0.00 90 1012.8
20260905101417 18 0.0 1.6 0.00 0.00 0.00 90 1012.9
20260905100917 18 103 1.6 1.6 0.00 0.00 0.00 91 1012.9
20260905100417 18 0.0 1.6 0.00 0.00 0.00 91 1012.9
20260905095917 18 0.0 1.6 0.00 0.00 0.00 91 1012.9
20260905095417 18 0.0 0.0 0.00 0.00 0.00 91 1012.9
20260905094917 18 0.0 1.6 0.00 0.00 0.00 91 1013.0
20260905094417 18 0.0 0.0 0.00 0.00 0.00 91 1012.9
20260905093937 18 0.0 0.0 0.00 0.00 0.00 90 1012.9
20260905093417 19 0.0 0.0 0.00 0.00 0.00 90 1012.9
20260905092917 19 0.0 0.0 0.00 0.00 0.00 90 1012.8
20260905092415 19 0.0 0.0 0.00 0.00 0.00 90 1012.8
20260905091917 19 0.0 0.0 0.00 0.00 0.00 90 1012.8
20260905091417 19 0.0 1.6 0.00 0.00 0.00 90 1012.9
20260905090917 19 125 1.6 3.2 0.00 0.00 0.00 90 1012.9
20260905090417 19 125 1.6 3.2 0.00 0.00 0.00 90 1012.9
20260905085917 19 0.0 0.0 0.00 0.00 0.00 90 1012.9
20260905085437 19 0.0 0.0 0.00 0.00 0.00 90 1012.9
20260905084917 19 0.0 0.0 0.00 0.00 0.00 90 1012.9
20260905084417 19 0.0 0.0 0.00 0.00 0.00 90 1012.9
20260905083917 19 0.0 1.6 0.00 0.00 0.00 90 1013.0
20260905083417 19 125 1.6 3.2 0.00 0.00 0.00 90 1013.0
20260905082957 19 0.0 0.0 0.00 0.00 0.00 89 1013.0
20260905082417 19 0.0 0.0 0.00 0.00 0.00 89 1013.1
20260905081917 19 103 1.6 1.6 0.00 0.00 0.00 90 1013.1
20260905081517 19 125 1.6 4.8 0.00 0.00 0.00 90 1013.2
20260905080937 19 0.0 0.0 0.00 0.00 0.00 90 1013.2
20260905080417 19 0.0 0.0 0.00 0.00 0.00 90 1013.3
20260905075917 19 0.0 1.6 0.00 0.00 0.00 90 1013.3
20260905075417 19 0.0 0.0 0.00 0.00 0.00 90 1013.2
20260905074917 19 0.0 1.6 0.00 0.00 0.00 90 1013.3
20260905074417 19 0.0 0.0 0.00 0.00 0.00 90 1013.3
20260905073917 19 0.0 0.0 0.00 0.00 0.00 91 1013.2
20260905073417 19 125 1.6 1.6 0.00 0.00 0.00 91 1013.2
20260905072917 18 0.0 0.0 0.00 0.00 0.00 91 1013.2
20260905072417 18 0.0 0.0 0.00 0.00 0.00 91 1013.1
20260905071917 18 0.0 0.0 0.00 0.00 0.00 90 1013.0
20260905071416 19 0.0 0.0 0.00 0.00 0.00 90 1013.1
20260905070917 19 0.0 0.0 0.00 0.00 0.00 90 1013.1
20260905070437 19 0.0 0.0 0.00 0.00 0.00 90 1013.1
20260905065915 18 0.0 0.0 0.00 0.00 0.00 90 1013.1
20260905065437 18 0.0 0.0 0.00 0.00 0.00 89 1013.0
20260905064917 19 0.0 0.0 0.00 0.00 0.00 89 1013.0